Content
SEND FEEDBACK

Daily
Averages
Monthly
Summary
Philippines

ANGELES, PHILIPPINES


Home > Asia > Philippines
Elevation: 577 feet     Latitude: 15 19N     Longitude: 120 23E

WEATHER
 
SELECT A DAY
Number of Records: 93,653;   Date Range: 2/13/97 - 7/29/14
 
SHARE

PRINT THIS DATA

[ ← Previous Day ]
WEATHER ALMANAC - FEBRUARY 25, 2013
[ Next Day → ]
[ °C ]   °F
Weather ElementAverageHighLow
Temperature79.9 °F87.8 °F (12:00 pm)71.6 °F (2:00 am)
Dewpoint68.9 °F69.8 °F (9:00 am)68 °F (1:00 am)
Humidity70 %88 % (2:00 am)55 % (12:00 pm)
Barometer29.96 in30.01 in (9:00 am)29.89 in (3:00 pm)
Wind Speed8.6 mph16.1 mph (3:00 pm)
Wind Gust29.9 mph (6:00 am)
Weather ElementAverage
Visibility6 mi
Wind DirectionSSE (155 °)

Weather ElementTotal
Precipitation---
Cooling Degree Days14.7 (Base 65)
Growing Degree Days29.7 (Base 50)
Averaged from 24 records on February 25, 2013
WEATHER CONDITIONS BREAKOUT
WIND DIRECTION BREAKOUT
WEATHER BY HOUR - FEBRUARY 25, 2013
[ °C ]   °F
Local TimeTemperatureDewpointHumidityBarometerVisibilityWind DirectionWind SpeedGust SpeedPrecipitationEventsConditions
1:00 AM73.4 °F68.0 °F83 %29.95 in6.2 miNNW (330°)6.9 mphScattered Clouds
2:00 AM71.6 °F68.0 °F88 %29.95 in6.2 miNW (320°)4.6 mphScattered Clouds
3:00 AM75.2 °F68.0 °F78 %29.95 in6.2 miNW (320°)6.9 mph28.8 mphOvercast
4:00 AM75.2 °F68.0 °F78 %29.95 in6.2 miNW (320°)4.6 mph27.6 mphMostly Cloudy
5:00 AM73.4 °F68.0 °F83 %29.95 in6.2 miNW (310°)5.8 mphMostly Cloudy
6:00 AM73.4 °F68.0 °F83 %29.98 in6.2 miNW (320°)5.8 mph29.9 mphMostly Cloudy
7:00 AM73.4 °F68.0 °F83 %29.98 in6.2 miWNW (290°)5.8 mphMostly Cloudy
8:00 AM77.0 °F68.0 °F74 %29.98 in6.2 miNW (320°)5.8 mph21.9 mphMostly Cloudy
9:00 AM80.6 °F69.8 °F70 %30.01 in6.2 miVariable6.9 mph29.9 mphMostly Cloudy
10:00 AM84.2 °F69.8 °F62 %30.01 in6.2 miVariable9.2 mph25.3 mphMostly Cloudy
11:00 AM86.0 °F69.8 °F58 %30.01 in6.2 miENE (70°)11.5 mphMostly Cloudy
12:00 PM87.8 °F69.8 °F55 %29.98 in6.2 miENE (60°)15.0 mphMostly Cloudy
1:00 PM86.0 °F69.8 °F58 %29.95 in6.2 miENE (70°)13.8 mphMostly Cloudy
1:20 PM86.0 °F68.0 °F55 %29.92 in5.6 miENE (70°)13.8 mph26.5 mphRainLight Rain Showers
2:00 PM86.0 °F69.8 °F58 %29.92 in6.2 miENE (70°)11.5 mphMostly Cloudy
3:00 PM86.0 °F69.8 °F58 %29.89 in5.0 miEast (90°)16.1 mphMostly Cloudy
4:00 PM86.0 °F68.0 °F55 %29.89 in6.2 miEast (80°)11.5 mphMostly Cloudy
5:00 PM84.2 °F69.8 °F62 %29.89 in6.2 miEast (100°)10.4 mphMostly Cloudy
6:00 PM80.6 °F69.8 °F70 %29.92 in6.2 miEast (80°)8.1 mphMostly Cloudy
7:00 PM80.6 °F68.0 °F65 %29.92 in6.2 miENE (70°)13.8 mph26.5 mphOvercast
8:00 PM78.8 °F68.0 °F69 %29.95 in6.2 miEast (100°)6.9 mphOvercast
9:00 PM78.8 °F69.8 °F74 %29.98 in5.0 miNE (40°)4.6 mphRainLight Rain
10:00 PM77.0 °F69.8 °F78 %29.98 in6.2 miWNW (290°)3.5 mphMostly Cloudy
11:00 PM75.2 °F69.8 °F83 %30.01 in5.0 miVariable3.5 mph20.7 mphRainLight Rain Showers
Hourly data recorded from RPLC, located miles away from Angeles, Philippines







STORIES FROM OUR PARTNERS